Вернуться в каталог

STARLINK-4505

АктивенСвязьVLEO
NORAD 53556·PAYLOAD·🇺🇸 United States

Запущен Aug 19, 2022 с Cape Canaveral Space Force Station

Loading…

Ближайшие Пролёты (ближайшие 24 часа)

TLE

СвежийSource: CelesTrak SupGP

Эпоха: Sep 15, 2026, 02:45 UTC

1 53556C 22101AF  26258.11506944  .00011502  00000+0  72119-3 0  2582
2 53556  53.1585 293.1286 0001207  86.1696   5.2243 15.08836266    12

Отслеживайте STARLINK-4505 в реальном времени с AllMySat

Download on the App Store